星链-5035 (STARLINK-5035 )

导读

STARLINK-5035是美国SpaceX公司星链(Starlink)星座中的一颗低轨互联网卫星,于2022年9月24日发射升空。星链计划旨在构建全球卫星互联网,为偏远地区提供高速宽带接入,该卫星属于星座扩容批次,服务全球网络覆盖,单颗卫星设计寿命5年以上,目前随整个星链系统服役运行。

Basic Information
目录编号:
53897
目录名称:
STARLINK-5035
国际标识:
2022-119M
轨道中心:
EARTH
卫星名称:
星链-5035
卫星全名:
星链-5035 (STARLINK-5035 )
卫星状态:
在轨 (已飞行1442 天)
发射日期:
2022-09-24 UTC
国别 :
美国 (US)
星等 :
--
Orbit Information
数据来源 国际轨道数据
星历时间: 2026-09-05T14:00:02+0800
7小时前
查看轨道信息
半长轴: 6814.189km
偏心率: 0.000142
轨道倾角: 53.215°
近地点辐角 70.739°
升交点赤经 186.171°
平近点角 220.132°
近地点: 435.084km
远地点: 437.02km
周期: 93.300分钟
每日圈数: 15.434108
Detailed Information
固有亮度:
5
最大亮度:
2.5
卫星平台:
Starlink v1.5
覆盖范围:
全球
运营商:
太空探索技术公司
运营商所在国:
美国
制造商(研发单位):
太空探索技术公司
制造商所在国:
美国
使用方式:
暂无
Satellite Introduction
星链(Starlink)计划是由太空探索技术公司(SpaceX)提出的一个巨型低轨卫星互联网星座项目,计划在2019年至2024年间在太空搭建由约1.2万颗卫星组成的“星链”网络,其中1584颗将部署在地球上空550千米处的近地轨道,并从2020年开始工作。该卫星仍在工作。
2D Orbit Map
3D Orbit Map
Orbit Altitude Analysis Chart
Orbit Inclination Analysis Chart
Orbit Comprehensive Analysis Chart
View Comprehensive Chart
Conjunction Data List
Event ID Objects TCA Miss Dist (km) Collision Risk Probability Collision Risk Index (CRI) Action
CDM_260903-162205-389706-430221
2026-09-03T
16:22:26+0000
1.362 km
极远距离
8.471325E-6 低风险 0.54